Regional Weather Roundup
Issued by NWS Goodland, KS

Home | Current Version | Previous Version | Text Only | Print | Product List | Glossary Off
Versions: 1 2 3 4 5 6 7 8 9 10 11 12 13 14 15 16 17 18 19 20 21 22 23 24 25 26 27 28 29 30 31 32 33 34 35 36 37 38 39 40 41 42 43 44 45 46 47 48 49 50

000
ASUS43 KGLD 141459
RWRGLD

GOODLAND FORECAST AREA HOURLY WEATHER ROUNDUP
NATIONAL WEATHER SERVICE GOODLAND KS
800 AM MST THU DEC 14 2017

...OFFICIAL OBSERVATIONS...

CITY           SKY/WX    TMP DP  RH WIND       PRES   REMARKS
GOODLAND KS    PTCLDY    33  29  85 W13       30.14S
HILL CITY KS   PTCLDY    39  29  67 NW13      30.13S
IMPERIAL NEB   CLOUDY    36  24  62 NW8       30.12R
MCCOOK NEB     CLOUDY    38  28  67 W9        30.11F
AKRON CO       CLOUDY    30  26  85 W13       30.17R WCI  20
BURLINGTON CO  CLOUDY    33  28  81 NW18      30.16S
LIMON CO       CLOUDY    27  25  92 NW13      30.20R WCI  16
$$

...UNOFFICIAL OBSERVATIONS...

CITY           SKY/WX    TMP DP  RH WIND       PRES   REMARKS
NORTON KS      CLOUDY    39  25  56 W15       30.11
SHARON SPRINGS   N/A     33  28  83 W8          N/A
KIT CARSON CO    N/A     33  26  76 MISG        N/A
YUMA CO        CLOUDY    32  27  80 W12       30.16R
$$



USA.gov is the U.S. government's official web portal to all federal, state and local government web resources and services.